FW6216 Weather Reports


Display with metric or nautical units.
time (UTC)temp
F
wind
direction
speed
MPH
gust
MPH
rain 1hr
in
rain 24hr
in
rain mn
in
humidity
%
barometer
mb
20260904183036 63 40 4.0 8.0 0.00 0.00 0.00 57 1016.2
20260904181533 64 48 4.0 12.0 0.00 0.00 0.00 59 1016.1
20260904173032 65 344 3.0 8.0 0.00 0.00 0.00 62 1016.0
20260904171531 62 40 2.0 8.0 0.00 0.00 0.00 66 1016.1
20260904170034 60 325 1.0 6.0 0.00 0.00 0.00 68 1016.3
20260904164529 60 330 0.0 4.0 0.00 0.00 0.00 67 1016.2
20260904163035 62 40 0.0 0.0 0.00 0.00 0.00 66 1016.2
20260904161531 62 49 1.0 5.0 0.00 0.00 0.00 67 1016.0
20260904160029 61 68 0.0 3.0 0.00 0.00 0.00 72 1016.0
20260904154642 58 67 0.0 4.0 0.00 0.00 0.00 82 1016.0
20260904153034 55 330 0.0 4.0 0.00 0.00 0.00 88 1016.0
20260904151605 52 236 0.0 3.0 0.00 0.00 0.00 90 1016.0
20260904150030 49 225 0.0 0.0 0.00 0.00 0.00 91 1015.8
20260904143035 48 225 0.0 3.0 0.00 0.00 0.00 91 1015.6
20260904134536 48 247 0.0 5.0 0.00 0.00 0.00 90 1015.2
20260904131649 47 204 1.0 4.0 0.00 0.00 0.00 89 1014.8
20260904130031 48 247 0.0 0.0 0.00 0.00 0.00 89 1014.8
20260904124606 48 247 0.0 0.0 0.00 0.00 0.00 89 1014.8
20260904123034 48 247 1.0 4.0 0.00 0.00 0.00 89 1014.8
20260904121644 48 203 0.0 3.0 0.00 0.00 0.00 89 1014.7
20260904114606 48 202 0.0 0.0 0.00 0.00 0.00 89 1014.4
20260904111649 48 202 0.0 0.0 0.00 0.00 0.00 89 1014.3
20260904110034 48 202 0.0 0.0 0.00 0.00 0.00 89 1014.2
20260904104606 48 202 0.0 0.0 0.00 0.00 0.00 90 1014.1
20260904103030 47 202 0.0 0.0 0.00 0.00 0.00 90 1014.0
20260904094536 47 202 0.0 4.0 0.00 0.00 0.00 89 1013.7
20260904090052 47 247 0.0 0.0 0.00 0.00 0.00 88 1013.6
20260904084607 47 247 0.0 0.0 0.00 0.00 0.00 88 1013.6
20260904083142 48 247 0.0 0.0 0.00 0.00 0.00 88 1013.4
20260904081530 48 247 0.0 0.0 0.00 0.00 0.00 88 1013.5
20260904080033 47 247 0.0 1.0 0.00 0.00 0.00 88 1013.6
20260904074536 47 247 2.0 3.0 0.00 0.00 0.00 88 1013.5
20260904073033 47 215 0.0 4.0 0.00 0.00 0.00 88 1013.4
20260904071531 46 193 0.0 4.0 0.00 0.00 0.00 87 1013.4
20260904070037 47 246 2.0 4.0 0.00 0.00 0.00 87 1013.4
20260904064534 47 191 1.0 4.0 0.00 0.00 0.00 86 1013.4
20260904061531 48 216 2.0 5.0 0.00 0.00 0.00 84 1013.1
20260904060030 48 155 1.0 4.0 0.00 0.00 0.00 83 1013.0
20260904054533 49 164 2.0 4.0 0.00 0.00 0.00 83 1013.1
20260904051531 50 209 1.0 4.0 0.00 0.00 0.00 82 1013.3
20260904050034 50 253 0.0 4.0 0.00 0.00 0.00 82 1013.3
20260904044551 0 0 0.0 0.0 0.00 0.00 0.00 100
20260904043108 51 275 0.0 0.0 0.00 0.00 0.00 82 1013.2
20260904041536 51 247 0.0 0.0 0.00 0.00 0.00 82 1013.3
20260904040035 51 263 0.0 0.0 0.00 0.00 0.00 82 1013.4
20260904033034 52 272 0.0 0.0 0.00 0.01 0.00 82 1013.2
20260904030031 52 310 1.0 6.0 0.00 0.02 0.00 80 1012.9
20260904024535 52 322 2.0 8.0 0.00 0.02 0.00 79 1012.8
20260904023030 52 291 3.0 8.0 0.00 0.02 0.00 77 1012.7
20260904021529 52 222 1.0 6.0 0.00 0.02 0.00 77 1012.5
20260904020030 53 306 1.0 8.0 0.00 0.02 0.00 75 1012.4
20260904014606 54 273 4.0 9.0 0.00 0.02 0.00 71 1012.4
20260904013033 55 275 3.0 8.0 0.00 0.02 0.00 69 1012.3
20260904011531 55 306 3.0 8.0 0.00 0.02 0.00 68 1012.2
20260904004607 57 306 2.0 9.0 0.00 0.02 0.00 66 1012.1
20260904003106 58 305 6.0 14.0 0.00 0.02 0.00 66 1012.0
20260904000032 59 296 5.0 13.0 0.00 0.02 0.00 62 1011.9
20260903234535 61 305 8.0 17.0 0.00 0.02 0.00 57 1011.7
20260903231531 64 49 2.0 10.0 0.00 0.02 0.00 47 1011.7
20260903223106 66 131 5.0 12.0 0.00 0.03 0.00 47 1011.8
20260903221535 65 125 7.0 14.0 0.00 0.03 0.00 47 1011.9
20260903213033 64 144 7.0 14.0 0.00 0.03 0.00 49 1012.3
20260903211532 65 149 4.0 12.0 0.00 0.03 0.00 48 1012.2
20260903210031 65 169 6.0 13.0 0.00 0.03 0.00 50 1012.3
20260903204530 64 163 7.0 12.0 0.00 0.03 0.00 49 1012.5
20260903201535 66 186 8.0 17.0 0.00 0.03 0.00 50 1012.6
20260903200030 65 176 8.0 17.0 0.00 0.03 0.00 53 1012.9
20260903194529 63 183 9.0 19.0 0.00 0.03 0.00 55 1013.1
20260903193030 61 179 8.0 18.0 0.00 0.03 0.00 57 1013.3
20260903184607 58 184 8.0 15.0 0.00 0.03 0.00 64 1013.9